Year,Month,Day,Hour,Minute,Value (Times are PST for temperature in C)
2021,07,01,00,00,18.10
2021,07,01,00,01,18.10
2021,07,01,00,02,18.10
2021,07,01,00,03,18.10
2021,07,01,00,04,18.10
2021,07,01,00,05,18.10
2021,07,01,00,06,18.10
2021,07,01,00,07,18.10
2021,07,01,00,08,18.10
2021,07,01,00,09,18.10
2021,07,01,00,10,18.10
2021,07,01,00,11,18.10
2021,07,01,00,12,18.10
2021,07,01,00,13,18.10
2021,07,01,00,14,18.10
2021,07,01,00,15,18.10
2021,07,01,00,16,18.10
2021,07,01,00,17,18.10
2021,07,01,00,18,18.10
2021,07,01,00,19,18.10
2021,07,01,00,20,18.10
2021,07,01,00,21,18.10
2021,07,01,00,22,18.10
2021,07,01,00,23,18.10
2021,07,01,00,24,18.10
2021,07,01,00,25,18.10
2021,07,01,00,26,18.10
2021,07,01,00,27,18.10
2021,07,01,00,28,18.10
2021,07,01,00,29,18.10
2021,07,01,00,30,18.10
2021,07,01,00,31,18.10
2021,07,01,00,32,18.10
2021,07,01,00,33,18.10
2021,07,01,00,34,18.10
2021,07,01,00,35,18.10
2021,07,01,00,36,18.10
2021,07,01,00,37,18.10
2021,07,01,00,38,18.10
2021,07,01,00,39,18.10
2021,07,01,00,40,18.10
2021,07,01,00,41,18.10
2021,07,01,00,42,18.10
2021,07,01,00,43,18.10
2021,07,01,00,44,18.10
2021,07,01,00,45,18.10
2021,07,01,00,46,18.10
2021,07,01,00,47,18.10
2021,07,01,00,48,18.10
2021,07,01,00,49,18.10
2021,07,01,00,50,18.10
2021,07,01,00,51,18.10
2021,07,01,00,52,18.00
2021,07,01,00,53,18.00
2021,07,01,00,54,17.90
2021,07,01,00,55,17.90
2021,07,01,00,56,17.90
2021,07,01,00,57,17.90
2021,07,01,00,58,17.90
2021,07,01,00,59,17.90
2021,07,01,01,00,17.90
2021,07,01,01,01,17.90
2021,07,01,01,02,17.90
2021,07,01,01,03,17.90
2021,07,01,01,04,17.90
2021,07,01,01,05,17.90
2021,07,01,01,06,17.90
2021,07,01,01,07,17.90
2021,07,01,01,08,17.90
2021,07,01,01,09,17.90
2021,07,01,01,10,17.90
2021,07,01,01,11,17.90
2021,07,01,01,12,17.80
2021,07,01,01,13,17.80
2021,07,01,01,14,17.80
2021,07,01,01,15,17.80
2021,07,01,01,16,17.80
2021,07,01,01,17,17.80
2021,07,01,01,18,17.70
2021,07,01,01,19,17.70
2021,07,01,01,20,17.70
2021,07,01,01,21,17.70
2021,07,01,01,22,17.70
2021,07,01,01,23,17.70
2021,07,01,01,24,17.70
2021,07,01,01,25,17.70
2021,07,01,01,26,17.70
2021,07,01,01,27,17.60
2021,07,01,01,28,17.60
2021,07,01,01,29,17.60
2021,07,01,01,30,17.60
2021,07,01,01,31,17.60
2021,07,01,01,32,17.60
2021,07,01,01,33,17.60
2021,07,01,01,34,17.60
2021,07,01,01,35,17.60
2021,07,01,01,36,17.60
2021,07,01,01,37,17.60
2021,07,01,01,38,17.50
2021,07,01,01,39,17.50
2021,07,01,01,40,17.50
2021,07,01,01,41,17.50
2021,07,01,01,42,17.50
2021,07,01,01,43,17.50
2021,07,01,01,44,17.50
2021,07,01,01,45,17.50
2021,07,01,01,46,17.50
2021,07,01,01,47,17.50
2021,07,01,01,48,17.50
2021,07,01,01,49,17.50
2021,07,01,01,50,17.50
2021,07,01,01,51,17.50
2021,07,01,01,52,17.40
2021,07,01,01,53,17.40
2021,07,01,01,54,17.40
2021,07,01,01,55,17.40
2021,07,01,01,56,17.40
2021,07,01,01,57,17.40
2021,07,01,01,58,17.40
2021,07,01,01,59,17.40
2021,07,01,02,00,17.40
2021,07,01,02,01,17.40
2021,07,01,02,02,17.40
2021,07,01,02,03,17.40
2021,07,01,02,04,17.40
2021,07,01,02,05,17.40
2021,07,01,02,06,17.40
2021,07,01,02,07,17.30
2021,07,01,02,08,17.30
2021,07,01,02,09,17.30
2021,07,01,02,10,17.30
2021,07,01,02,11,17.30
2021,07,01,02,12,17.30
2021,07,01,02,13,17.30
2021,07,01,02,14,17.30
2021,07,01,02,15,17.30
2021,07,01,02,16,17.30
2021,07,01,02,17,17.30
2021,07,01,02,18,17.30
2021,07,01,02,19,17.30
2021,07,01,02,20,17.30
2021,07,01,02,21,17.30
2021,07,01,02,22,17.30
2021,07,01,02,23,17.30
2021,07,01,02,24,17.30
2021,07,01,02,25,17.30
2021,07,01,02,26,17.30
2021,07,01,02,27,17.30
2021,07,01,02,28,17.30
2021,07,01,02,29,17.30
2021,07,01,02,30,17.30
2021,07,01,02,31,17.30
2021,07,01,02,32,17.30
2021,07,01,02,33,17.30
2021,07,01,02,34,17.30
2021,07,01,02,35,17.20
2021,07,01,02,36,17.20
2021,07,01,02,37,17.20
2021,07,01,02,38,17.20
2021,07,01,02,39,17.20
2021,07,01,02,40,17.20
2021,07,01,02,41,17.10
2021,07,01,02,42,17.10
2021,07,01,02,43,17.10
2021,07,01,02,44,17.10
2021,07,01,02,45,17.10
2021,07,01,02,46,17.00
2021,07,01,02,47,17.00
2021,07,01,02,48,17.00
2021,07,01,02,49,17.00
2021,07,01,02,50,16.90
2021,07,01,02,51,16.90
2021,07,01,02,52,16.90
2021,07,01,02,53,16.90
2021,07,01,02,54,16.90
2021,07,01,02,55,16.80
2021,07,01,02,56,16.80
2021,07,01,02,57,16.80
2021,07,01,02,58,16.80
2021,07,01,02,59,16.80
2021,07,01,03,00,16.80
2021,07,01,03,01,16.70
2021,07,01,03,02,16.70
2021,07,01,03,03,16.70
2021,07,01,03,04,16.70
2021,07,01,03,05,16.70
2021,07,01,03,06,16.70
2021,07,01,03,07,16.70
2021,07,01,03,08,16.70
2021,07,01,03,09,16.70
2021,07,01,03,10,16.70
2021,07,01,03,11,16.70
2021,07,01,03,12,16.70
2021,07,01,03,13,16.70
2021,07,01,03,14,16.70
2021,07,01,03,15,16.70
2021,07,01,03,16,16.70
2021,07,01,03,17,16.70
2021,07,01,03,18,16.70
2021,07,01,03,19,16.70
2021,07,01,03,20,16.80
2021,07,01,03,21,16.80
2021,07,01,03,22,16.80
2021,07,01,03,23,16.80
2021,07,01,03,24,16.80
2021,07,01,03,25,16.80
2021,07,01,03,26,16.80
2021,07,01,03,27,16.80
2021,07,01,03,28,16.80
2021,07,01,03,29,16.80
2021,07,01,03,30,16.80
2021,07,01,03,31,16.80
2021,07,01,03,32,16.80
2021,07,01,03,33,16.80
2021,07,01,03,34,16.80
2021,07,01,03,35,16.80
2021,07,01,03,36,16.80
2021,07,01,03,37,16.80
2021,07,01,03,38,16.80
2021,07,01,03,39,16.90
2021,07,01,03,40,16.90
2021,07,01,03,41,16.90
2021,07,01,03,42,16.90
2021,07,01,03,43,16.90
2021,07,01,03,44,16.90
2021,07,01,03,45,16.90
2021,07,01,03,46,16.90
2021,07,01,03,47,16.90
2021,07,01,03,48,16.90
2021,07,01,03,49,16.90
2021,07,01,03,50,16.90
2021,07,01,03,51,16.90
2021,07,01,03,52,16.90
2021,07,01,03,53,16.90
2021,07,01,03,54,16.90
2021,07,01,03,55,16.90
2021,07,01,03,56,16.90
2021,07,01,03,57,16.90
2021,07,01,03,58,16.90
2021,07,01,03,59,16.90
2021,07,01,04,00,16.90
2021,07,01,04,01,16.90
2021,07,01,04,02,16.90
2021,07,01,04,03,16.90
2021,07,01,04,04,16.90
2021,07,01,04,05,16.90
2021,07,01,04,06,16.90
2021,07,01,04,07,16.90
2021,07,01,04,08,16.90
2021,07,01,04,09,16.90
2021,07,01,04,10,16.90
2021,07,01,04,11,16.90
2021,07,01,04,12,16.90
2021,07,01,04,13,16.90
2021,07,01,04,14,16.90
2021,07,01,04,15,16.90
2021,07,01,04,16,16.90
2021,07,01,04,17,16.90
2021,07,01,04,18,16.90
2021,07,01,04,19,16.90
2021,07,01,04,20,16.90
2021,07,01,04,21,16.90
2021,07,01,04,22,16.90
2021,07,01,04,23,16.90
2021,07,01,04,24,16.90
2021,07,01,04,25,17.00
2021,07,01,04,26,17.00
2021,07,01,04,27,17.00
2021,07,01,04,28,16.90
2021,07,01,04,29,16.90
2021,07,01,04,30,16.90
2021,07,01,04,31,16.90
2021,07,01,04,32,16.90
2021,07,01,04,33,16.90
2021,07,01,04,34,16.90
2021,07,01,04,35,16.90
2021,07,01,04,36,16.90
2021,07,01,04,37,16.90
2021,07,01,04,38,16.90
2021,07,01,04,39,17.00
2021,07,01,04,40,17.00
2021,07,01,04,41,17.00
2021,07,01,04,42,17.00
2021,07,01,04,43,17.00
2021,07,01,04,44,17.00
2021,07,01,04,45,17.00
2021,07,01,04,46,17.00
2021,07,01,04,47,17.00
2021,07,01,04,48,17.00
2021,07,01,04,49,17.00
2021,07,01,04,50,17.00
2021,07,01,04,51,17.00
2021,07,01,04,52,17.00
2021,07,01,04,53,17.00
2021,07,01,04,54,17.00
2021,07,01,04,55,17.00
2021,07,01,04,56,17.00
2021,07,01,04,57,17.00
2021,07,01,04,58,17.00
2021,07,01,04,59,17.00
2021,07,01,05,00,17.00
2021,07,01,05,01,17.00
2021,07,01,05,02,17.00
2021,07,01,05,03,17.00
2021,07,01,05,04,17.00
2021,07,01,05,05,17.00
2021,07,01,05,06,17.00
2021,07,01,05,07,17.00
2021,07,01,05,08,17.00
2021,07,01,05,09,17.00
2021,07,01,05,10,17.00
2021,07,01,05,11,17.00
2021,07,01,05,12,17.00
2021,07,01,05,13,17.00
2021,07,01,05,14,17.00
2021,07,01,05,15,17.00
2021,07,01,05,16,17.00
2021,07,01,05,17,17.00
2021,07,01,05,18,17.00
2021,07,01,05,19,17.00
2021,07,01,05,20,17.00
2021,07,01,05,21,17.00
2021,07,01,05,22,17.00
2021,07,01,05,23,17.00
2021,07,01,05,24,17.00
2021,07,01,05,25,17.00
2021,07,01,05,26,17.00
2021,07,01,05,27,17.00
2021,07,01,05,28,17.00
2021,07,01,05,29,17.00
2021,07,01,05,30,17.00
2021,07,01,05,31,17.00
2021,07,01,05,32,17.00
2021,07,01,05,33,17.00
2021,07,01,05,34,17.00
2021,07,01,05,35,17.00
2021,07,01,05,36,17.00
2021,07,01,05,37,17.00
2021,07,01,05,38,17.00
2021,07,01,05,39,17.00
2021,07,01,05,40,17.00
2021,07,01,05,41,17.00
2021,07,01,05,42,17.00
2021,07,01,05,43,17.00
2021,07,01,05,44,17.00
2021,07,01,05,45,17.00
2021,07,01,05,46,17.00
2021,07,01,05,47,17.00
2021,07,01,05,48,17.00
2021,07,01,05,49,17.00
2021,07,01,05,50,17.00
2021,07,01,05,51,17.00
2021,07,01,05,52,17.00
2021,07,01,05,53,17.00
2021,07,01,05,54,17.00
2021,07,01,05,55,17.00
2021,07,01,05,56,17.00
2021,07,01,05,57,17.00
2021,07,01,05,58,17.10
2021,07,01,05,59,17.10
2021,07,01,06,00,17.10
2021,07,01,06,01,17.10
2021,07,01,06,02,17.10
2021,07,01,06,03,17.10
2021,07,01,06,04,17.10
2021,07,01,06,05,17.10
2021,07,01,06,06,17.10
2021,07,01,06,07,17.10
2021,07,01,06,08,17.10
2021,07,01,06,09,17.10
2021,07,01,06,10,17.10
2021,07,01,06,11,17.20
2021,07,01,06,12,17.20
2021,07,01,06,13,17.20
2021,07,01,06,14,17.20
2021,07,01,06,15,17.20
2021,07,01,06,16,17.20
2021,07,01,06,17,17.20
2021,07,01,06,18,17.20
2021,07,01,06,19,17.20
2021,07,01,06,20,17.20
2021,07,01,06,21,17.20
2021,07,01,06,22,17.20
2021,07,01,06,23,17.20
2021,07,01,06,24,17.30
2021,07,01,06,25,17.30
2021,07,01,06,26,17.30
2021,07,01,06,27,17.30
2021,07,01,06,28,17.30
2021,07,01,06,29,17.30
2021,07,01,06,30,17.30
2021,07,01,06,31,17.30
2021,07,01,06,32,17.30
2021,07,01,06,33,17.30
2021,07,01,06,34,17.30
2021,07,01,06,35,17.30
2021,07,01,06,36,17.30
2021,07,01,06,37,17.30
2021,07,01,06,38,17.30
2021,07,01,06,39,17.30
2021,07,01,06,40,17.30
2021,07,01,06,41,17.30
2021,07,01,06,42,17.30
2021,07,01,06,43,17.30
2021,07,01,06,44,17.30
2021,07,01,06,45,17.30
2021,07,01,06,46,17.40
2021,07,01,06,47,17.40
2021,07,01,06,48,17.40
2021,07,01,06,49,17.40
2021,07,01,06,50,17.40
2021,07,01,06,51,17.40
2021,07,01,06,52,17.40
2021,07,01,06,53,17.40
2021,07,01,06,54,17.40
2021,07,01,06,55,17.40
2021,07,01,06,56,17.40
2021,07,01,06,57,17.40
2021,07,01,06,58,17.40
2021,07,01,06,59,17.40
2021,07,01,07,00,17.40
2021,07,01,07,01,17.40
2021,07,01,07,02,17.40
2021,07,01,07,03,17.40
2021,07,01,07,04,17.40
2021,07,01,07,05,17.40
2021,07,01,07,06,17.40
2021,07,01,07,07,17.40
2021,07,01,07,08,17.40
2021,07,01,07,09,17.40
2021,07,01,07,10,17.40
2021,07,01,07,11,17.50
2021,07,01,07,12,17.50
2021,07,01,07,13,17.50
2021,07,01,07,14,17.50
2021,07,01,07,15,17.50
2021,07,01,07,16,17.50
2021,07,01,07,17,17.50
2021,07,01,07,18,17.50
2021,07,01,07,19,17.50
2021,07,01,07,20,17.50
2021,07,01,07,21,17.60
2021,07,01,07,22,17.60
2021,07,01,07,23,17.60
2021,07,01,07,24,17.60
2021,07,01,07,25,17.60
2021,07,01,07,26,17.60
2021,07,01,07,27,17.60
2021,07,01,07,28,17.60
2021,07,01,07,29,17.60
2021,07,01,07,30,17.70
2021,07,01,07,31,17.70
2021,07,01,07,32,17.70
2021,07,01,07,33,17.70
2021,07,01,07,34,17.70
2021,07,01,07,35,17.70
2021,07,01,07,36,17.70
2021,07,01,07,37,17.70
2021,07,01,07,38,17.70
2021,07,01,07,39,17.70
2021,07,01,07,40,17.70
2021,07,01,07,41,17.70
2021,07,01,07,42,17.70
2021,07,01,07,43,17.70
2021,07,01,07,44,17.70
2021,07,01,07,45,17.70
2021,07,01,07,46,17.70
2021,07,01,07,47,17.70
2021,07,01,07,48,17.70
2021,07,01,07,49,17.70
2021,07,01,07,50,17.70
2021,07,01,07,51,17.70
2021,07,01,07,52,17.80
2021,07,01,07,53,17.80
2021,07,01,07,54,17.80
2021,07,01,07,55,17.80
2021,07,01,07,56,17.90
2021,07,01,07,57,17.90
2021,07,01,07,58,17.90
2021,07,01,07,59,17.90
2021,07,01,08,00,17.90
2021,07,01,08,01,17.90
2021,07,01,08,02,17.90
2021,07,01,08,03,17.90
2021,07,01,08,04,18.00
2021,07,01,08,05,18.10
2021,07,01,08,06,18.10
2021,07,01,08,07,18.10
2021,07,01,08,08,18.20
2021,07,01,08,09,18.20
2021,07,01,08,10,18.20
2021,07,01,08,11,18.20
2021,07,01,08,12,18.20
2021,07,01,08,13,18.20
2021,07,01,08,14,18.20
2021,07,01,08,15,18.20
2021,07,01,08,16,18.30
2021,07,01,08,17,18.30
2021,07,01,08,18,18.30
2021,07,01,08,19,18.40
2021,07,01,08,20,18.40
2021,07,01,08,21,18.40
2021,07,01,08,22,18.40
2021,07,01,08,23,18.40
2021,07,01,08,24,18.50
2021,07,01,08,25,18.50
2021,07,01,08,26,18.50
2021,07,01,08,27,18.50
2021,07,01,08,28,18.50
2021,07,01,08,29,18.50
2021,07,01,08,30,18.50
2021,07,01,08,31,18.60
2021,07,01,08,32,18.60
2021,07,01,08,33,18.60
2021,07,01,08,34,18.70
2021,07,01,08,35,18.70
2021,07,01,08,36,18.70
2021,07,01,08,37,18.70
2021,07,01,08,38,18.70
2021,07,01,08,39,18.70
2021,07,01,08,40,18.80
2021,07,01,08,41,18.80
2021,07,01,08,42,18.80
2021,07,01,08,43,18.80
2021,07,01,08,44,18.80
2021,07,01,08,45,18.90
2021,07,01,08,46,18.90
2021,07,01,08,47,18.90
2021,07,01,08,48,18.90
2021,07,01,08,49,18.90
2021,07,01,08,50,18.90
2021,07,01,08,51,19.00
2021,07,01,08,52,19.10
2021,07,01,08,53,19.10
2021,07,01,08,54,19.10
2021,07,01,08,55,19.10
2021,07,01,08,56,19.10
2021,07,01,08,57,19.10
2021,07,01,08,58,19.10
2021,07,01,08,59,19.10
2021,07,01,09,00,19.10
2021,07,01,09,01,19.10
2021,07,01,09,02,19.10
2021,07,01,09,03,19.10
2021,07,01,09,04,19.10
2021,07,01,09,05,19.10
2021,07,01,09,06,19.20
2021,07,01,09,07,19.20
2021,07,01,09,08,19.20
2021,07,01,09,09,19.20
2021,07,01,09,10,19.20
2021,07,01,09,11,19.20
2021,07,01,09,12,19.20
2021,07,01,09,13,19.20
2021,07,01,09,14,19.20
2021,07,01,09,15,19.20
2021,07,01,09,16,19.20
2021,07,01,09,17,19.20
2021,07,01,09,18,19.20
2021,07,01,09,19,19.20
2021,07,01,09,20,19.20
2021,07,01,09,21,19.20
2021,07,01,09,22,19.10
2021,07,01,09,23,19.10
2021,07,01,09,24,19.10
2021,07,01,09,25,19.10
2021,07,01,09,26,19.10
2021,07,01,09,27,19.10
2021,07,01,09,28,19.10
2021,07,01,09,29,19.10
2021,07,01,09,30,19.10
2021,07,01,09,31,19.10
2021,07,01,09,32,19.10
2021,07,01,09,33,19.10
2021,07,01,09,34,19.10
2021,07,01,09,35,19.10
2021,07,01,09,36,19.10
2021,07,01,09,37,19.10
2021,07,01,09,38,19.10
2021,07,01,09,39,19.10
2021,07,01,09,40,19.10
2021,07,01,09,41,19.10
2021,07,01,09,42,19.10
2021,07,01,09,43,18.90
2021,07,01,09,44,18.90
2021,07,01,09,45,18.90
2021,07,01,09,46,18.90
2021,07,01,09,47,18.90
2021,07,01,09,48,18.90
2021,07,01,09,49,18.90
2021,07,01,09,50,18.90
2021,07,01,09,51,18.90
2021,07,01,09,52,18.90
2021,07,01,09,53,18.90
2021,07,01,09,54,18.90
2021,07,01,09,55,18.90
2021,07,01,09,56,18.80
2021,07,01,09,57,18.80
2021,07,01,09,58,18.80
2021,07,01,09,59,18.80
2021,07,01,10,00,18.80
2021,07,01,10,01,18.80
2021,07,01,10,02,18.80
2021,07,01,10,03,18.80
2021,07,01,10,04,18.80
2021,07,01,10,05,18.80
2021,07,01,10,06,18.80
2021,07,01,10,07,18.80
2021,07,01,10,08,18.80
2021,07,01,10,09,18.70
2021,07,01,10,10,18.70
2021,07,01,10,11,18.70
2021,07,01,10,12,18.70
2021,07,01,10,13,18.70
2021,07,01,10,14,18.70
2021,07,01,10,15,18.70
2021,07,01,10,16,18.70
2021,07,01,10,17,18.70
2021,07,01,10,18,18.70
2021,07,01,10,19,18.70
2021,07,01,10,20,18.70
2021,07,01,10,21,18.70
2021,07,01,10,22,18.70
2021,07,01,10,23,18.60
2021,07,01,10,24,18.60
2021,07,01,10,25,18.60
2021,07,01,10,26,18.60
2021,07,01,10,27,18.60
2021,07,01,10,28,18.50
2021,07,01,10,29,18.50
2021,07,01,10,30,18.50
2021,07,01,10,31,18.50
2021,07,01,10,32,18.50
2021,07,01,10,33,18.50
2021,07,01,10,34,18.50
2021,07,01,10,35,18.40
2021,07,01,10,36,18.40
2021,07,01,10,37,18.40
2021,07,01,10,38,18.40
2021,07,01,10,39,18.40
2021,07,01,10,40,18.40
2021,07,01,10,41,18.40
2021,07,01,10,42,18.40
2021,07,01,10,43,18.50
2021,07,01,10,44,18.50
2021,07,01,10,45,18.50
2021,07,01,10,46,18.50
2021,07,01,10,47,18.50
2021,07,01,10,48,18.50
2021,07,01,10,49,18.50
2021,07,01,10,50,18.50
2021,07,01,10,51,18.50
2021,07,01,10,52,18.50
2021,07,01,10,53,18.50
2021,07,01,10,54,18.50
2021,07,01,10,55,18.50
2021,07,01,10,56,18.50
2021,07,01,10,57,18.50
2021,07,01,10,58,18.50
2021,07,01,10,59,18.50
2021,07,01,11,00,18.50
2021,07,01,11,01,18.50
2021,07,01,11,02,18.60
2021,07,01,11,03,18.60
2021,07,01,11,04,18.60
2021,07,01,11,05,18.60
2021,07,01,11,06,18.70
2021,07,01,11,07,18.70
2021,07,01,11,08,18.70
2021,07,01,11,09,18.70
2021,07,01,11,10,18.80
2021,07,01,11,11,18.80
2021,07,01,11,12,18.80
2021,07,01,11,13,18.80
2021,07,01,11,14,18.90
2021,07,01,11,15,18.90
2021,07,01,11,16,18.90
2021,07,01,11,17,18.90
2021,07,01,11,18,18.90
2021,07,01,11,19,19.00
2021,07,01,11,20,19.10
2021,07,01,11,21,19.10
2021,07,01,11,22,19.10
2021,07,01,11,23,19.10
2021,07,01,11,24,19.10
2021,07,01,11,25,19.10
2021,07,01,11,26,19.10
2021,07,01,11,27,19.10
2021,07,01,11,28,19.10
2021,07,01,11,29,19.10
2021,07,01,11,30,19.10
2021,07,01,11,31,19.10
2021,07,01,11,32,19.10
2021,07,01,11,33,19.10
2021,07,01,11,34,19.10
2021,07,01,11,35,19.10
2021,07,01,11,36,19.00
2021,07,01,11,37,18.90
2021,07,01,11,38,18.90
2021,07,01,11,39,18.90
2021,07,01,11,40,18.90
2021,07,01,11,41,18.90
2021,07,01,11,42,18.90
2021,07,01,11,43,18.90
2021,07,01,11,44,18.90
2021,07,01,11,45,19.00
2021,07,01,11,46,19.10
2021,07,01,11,47,19.10
2021,07,01,11,48,19.10
2021,07,01,11,49,19.10
2021,07,01,11,50,19.10
2021,07,01,11,51,19.10
2021,07,01,11,52,19.10
2021,07,01,11,53,19.10
2021,07,01,11,54,19.10
2021,07,01,11,55,19.10
2021,07,01,11,56,19.10
2021,07,01,11,57,19.10
2021,07,01,11,58,19.20
2021,07,01,11,59,19.20
2021,07,01,12,00,19.20
2021,07,01,12,01,19.20
2021,07,01,12,02,19.20
2021,07,01,12,03,19.20
2021,07,01,12,04,19.20
2021,07,01,12,05,19.20
2021,07,01,12,06,19.20
2021,07,01,12,07,19.20
2021,07,01,12,08,19.20
2021,07,01,12,09,19.20
2021,07,01,12,10,19.20
2021,07,01,12,11,19.20
2021,07,01,12,12,19.20
2021,07,01,12,13,19.20
2021,07,01,12,14,19.20
2021,07,01,12,15,19.20
2021,07,01,12,16,19.20
2021,07,01,12,17,19.20
2021,07,01,12,18,19.20
2021,07,01,12,19,19.20
2021,07,01,12,20,19.20
2021,07,01,12,21,19.10
2021,07,01,12,22,19.10
2021,07,01,12,23,19.10
2021,07,01,12,24,19.10
2021,07,01,12,25,19.10
2021,07,01,12,26,19.10
2021,07,01,12,27,19.10
2021,07,01,12,28,19.10
2021,07,01,12,29,19.10
2021,07,01,12,30,19.10
2021,07,01,12,31,19.10
2021,07,01,12,32,19.10
2021,07,01,12,33,19.10
2021,07,01,12,34,19.10
2021,07,01,12,35,19.10
2021,07,01,12,36,19.10
2021,07,01,12,37,19.20
2021,07,01,12,38,19.20
2021,07,01,12,39,19.20
2021,07,01,12,40,19.30
2021,07,01,12,41,19.30
2021,07,01,12,42,19.30
2021,07,01,12,43,19.40
2021,07,01,12,44,19.40
2021,07,01,12,45,19.50
2021,07,01,12,46,19.50
2021,07,01,12,47,19.50
2021,07,01,12,48,19.50
2021,07,01,12,49,19.50
2021,07,01,12,50,19.50
2021,07,01,12,51,19.50
2021,07,01,12,52,19.50
2021,07,01,12,53,19.60
2021,07,01,12,54,19.60
2021,07,01,12,55,19.60
2021,07,01,12,56,19.70
2021,07,01,12,57,19.70
2021,07,01,12,58,19.80
2021,07,01,12,59,19.80
2021,07,01,13,00,19.90
2021,07,01,13,01,19.90
2021,07,01,13,02,19.90
2021,07,01,13,03,20.00
2021,07,01,13,04,20.10
2021,07,01,13,05,20.20
2021,07,01,13,06,20.30
2021,07,01,13,07,20.30
2021,07,01,13,08,20.40
2021,07,01,13,09,20.50
2021,07,01,13,10,20.50
2021,07,01,13,11,20.50
2021,07,01,13,12,20.60
2021,07,01,13,13,20.60
2021,07,01,13,14,20.70
2021,07,01,13,15,20.70
2021,07,01,13,16,20.70
2021,07,01,13,17,20.70
2021,07,01,13,18,20.60
2021,07,01,13,19,20.60
2021,07,01,13,20,20.50
2021,07,01,13,21,20.60
2021,07,01,13,22,20.60
2021,07,01,13,23,20.60
2021,07,01,13,24,20.60
2021,07,01,13,25,20.70
2021,07,01,13,26,20.80
2021,07,01,13,27,20.70
2021,07,01,13,28,20.60
2021,07,01,13,29,20.60
2021,07,01,13,30,20.50
2021,07,01,13,31,20.60
2021,07,01,13,32,20.60
2021,07,01,13,33,20.70
2021,07,01,13,34,20.80
2021,07,01,13,35,20.90
2021,07,01,13,36,20.90
2021,07,01,13,37,21.00
2021,07,01,13,38,21.10
2021,07,01,13,39,21.20
2021,07,01,13,40,21.30
2021,07,01,13,41,21.30
2021,07,01,13,42,21.40
2021,07,01,13,43,21.40
2021,07,01,13,44,21.60
2021,07,01,13,45,21.60
2021,07,01,13,46,21.60
2021,07,01,13,47,21.60
2021,07,01,13,48,21.60
2021,07,01,13,49,21.60
2021,07,01,13,50,21.60
2021,07,01,13,51,21.60
2021,07,01,13,52,21.60
2021,07,01,13,53,21.60
2021,07,01,13,54,21.60
2021,07,01,13,55,21.60
2021,07,01,13,56,21.60
2021,07,01,13,57,21.60
2021,07,01,13,58,21.60
2021,07,01,13,59,21.60
2021,07,01,14,00,21.60
2021,07,01,14,01,21.60
2021,07,01,14,02,21.70
2021,07,01,14,03,21.70
2021,07,01,14,04,21.80
2021,07,01,14,05,21.80
2021,07,01,14,06,21.90
2021,07,01,14,07,21.90
2021,07,01,14,08,22.00
2021,07,01,14,09,22.10
2021,07,01,14,10,22.10
2021,07,01,14,11,22.10
2021,07,01,14,12,22.20
2021,07,01,14,13,22.20
2021,07,01,14,14,22.20
2021,07,01,14,15,22.30
2021,07,01,14,16,22.30
2021,07,01,14,17,22.30
2021,07,01,14,18,22.30
2021,07,01,14,19,22.30
2021,07,01,14,20,22.30
2021,07,01,14,21,22.30
2021,07,01,14,22,22.20
2021,07,01,14,23,22.10
2021,07,01,14,24,22.00
2021,07,01,14,25,21.90
2021,07,01,14,26,21.80
2021,07,01,14,27,21.70
2021,07,01,14,28,21.70
2021,07,01,14,29,21.70
2021,07,01,14,30,21.70
2021,07,01,14,31,21.60
2021,07,01,14,32,21.60
2021,07,01,14,33,21.60
2021,07,01,14,34,21.60
2021,07,01,14,35,21.60
2021,07,01,14,36,21.60
2021,07,01,14,37,21.60
2021,07,01,14,38,21.60
2021,07,01,14,39,21.60
2021,07,01,14,40,21.60
2021,07,01,14,41,21.60
2021,07,01,14,42,21.60
2021,07,01,14,43,21.60
2021,07,01,14,44,21.60
2021,07,01,14,45,21.60
2021,07,01,14,46,21.60
2021,07,01,14,47,21.70
2021,07,01,14,48,21.70
2021,07,01,14,49,21.80
2021,07,01,14,50,21.80
2021,07,01,14,51,21.80
2021,07,01,14,52,21.80
2021,07,01,14,53,21.80
2021,07,01,14,54,21.90
2021,07,01,14,55,21.90
2021,07,01,14,56,21.90
2021,07,01,14,57,22.00
2021,07,01,14,58,22.00
2021,07,01,14,59,22.10
2021,07,01,15,00,22.10
2021,07,01,15,01,22.20
2021,07,01,15,02,22.20
2021,07,01,15,03,22.20
2021,07,01,15,04,22.20
2021,07,01,15,05,22.20
2021,07,01,15,06,22.30
2021,07,01,15,07,22.40
2021,07,01,15,08,22.50
2021,07,01,15,09,22.60
2021,07,01,15,10,22.70
2021,07,01,15,11,22.80
2021,07,01,15,12,22.90
2021,07,01,15,13,22.90
2021,07,01,15,14,22.90
2021,07,01,15,15,22.90
2021,07,01,15,16,22.90
2021,07,01,15,17,22.90
2021,07,01,15,18,22.90
2021,07,01,15,19,22.80
2021,07,01,15,20,22.70
2021,07,01,15,21,22.60
2021,07,01,15,22,22.50
2021,07,01,15,23,22.50
2021,07,01,15,24,22.40
2021,07,01,15,25,22.40
2021,07,01,15,26,22.40
2021,07,01,15,27,22.40
2021,07,01,15,28,22.40
2021,07,01,15,29,22.40
2021,07,01,15,30,22.40
2021,07,01,15,31,22.40
2021,07,01,15,32,22.40
2021,07,01,15,33,22.40
2021,07,01,15,34,22.40
2021,07,01,15,35,22.40
2021,07,01,15,36,22.40
2021,07,01,15,37,22.50
2021,07,01,15,38,22.50
2021,07,01,15,39,22.50
2021,07,01,15,40,22.50
2021,07,01,15,41,22.50
2021,07,01,15,42,22.50
2021,07,01,15,43,22.50
2021,07,01,15,44,22.50
2021,07,01,15,45,22.50
2021,07,01,15,46,22.40
2021,07,01,15,47,22.40
2021,07,01,15,48,22.40
2021,07,01,15,49,22.40
2021,07,01,15,50,22.30
2021,07,01,15,51,22.30
2021,07,01,15,52,22.30
2021,07,01,15,53,22.30
2021,07,01,15,54,22.30
2021,07,01,15,55,22.30
2021,07,01,15,56,22.20
2021,07,01,15,57,22.20
2021,07,01,15,58,22.30
2021,07,01,15,59,22.30
2021,07,01,16,00,22.30
2021,07,01,16,01,22.30
2021,07,01,16,02,22.30
2021,07,01,16,03,22.30
2021,07,01,16,04,22.30
2021,07,01,16,05,22.30
2021,07,01,16,06,22.30
2021,07,01,16,07,22.30
2021,07,01,16,08,22.30
2021,07,01,16,09,22.40
2021,07,01,16,10,22.40
2021,07,01,16,11,22.40
2021,07,01,16,12,22.40
2021,07,01,16,13,22.40
2021,07,01,16,14,22.40
2021,07,01,16,15,22.40
2021,07,01,16,16,22.40
2021,07,01,16,17,22.40
2021,07,01,16,18,22.30
2021,07,01,16,19,22.30
2021,07,01,16,20,22.30
2021,07,01,16,21,22.20
2021,07,01,16,22,22.20
2021,07,01,16,23,22.10
2021,07,01,16,24,22.10
2021,07,01,16,25,22.10
2021,07,01,16,26,22.00
2021,07,01,16,27,21.90
2021,07,01,16,28,21.90
2021,07,01,16,29,21.80
2021,07,01,16,30,21.80
2021,07,01,16,31,21.80
2021,07,01,16,32,21.80
2021,07,01,16,33,21.70
2021,07,01,16,34,21.70
2021,07,01,16,35,21.70
2021,07,01,16,36,21.60
2021,07,01,16,37,21.60
2021,07,01,16,38,21.60
2021,07,01,16,39,21.60
2021,07,01,16,40,21.60
2021,07,01,16,41,21.60
2021,07,01,16,42,21.50
2021,07,01,16,43,21.40
2021,07,01,16,44,21.40
2021,07,01,16,45,21.30
2021,07,01,16,46,21.30
2021,07,01,16,47,21.30
2021,07,01,16,48,21.30
2021,07,01,16,49,21.30
2021,07,01,16,50,21.30
2021,07,01,16,51,21.30
2021,07,01,16,52,21.30
2021,07,01,16,53,21.30
2021,07,01,16,54,21.30
2021,07,01,16,55,21.30
2021,07,01,16,56,21.30
2021,07,01,16,57,21.30
2021,07,01,16,58,21.20
2021,07,01,16,59,21.20
2021,07,01,17,00,21.30
2021,07,01,17,01,21.30
2021,07,01,17,02,21.30
2021,07,01,17,03,21.30
2021,07,01,17,04,21.30
2021,07,01,17,05,21.30
2021,07,01,17,06,21.30
2021,07,01,17,07,21.30
2021,07,01,17,08,21.30
2021,07,01,17,09,21.30
2021,07,01,17,10,21.30
2021,07,01,17,11,21.30
2021,07,01,17,12,21.20
2021,07,01,17,13,21.20
2021,07,01,17,14,21.20
2021,07,01,17,15,21.20
2021,07,01,17,16,21.20
2021,07,01,17,17,21.20
2021,07,01,17,18,21.20
2021,07,01,17,19,21.20